EW9119 Weather Reports


time (UTC)temp
C
wind
direction
speed
KPH
gust
KPH
rain 1hr
cm
rain 24hr
cm
rain mn
cm
humidity
%
barometer
mb
20260505101534 12 324 0.0 0.0 0.00 0.00 0.00 54 1013.3
20260505100034 12 20 0.0 0.0 0.00 0.00 0.00 55 1013.1
20260505094534 12 78 0.0 0.0 0.00 0.00 0.00 58 1013.1
20260505093029 12 78 0.0 0.0 0.00 0.00 0.00 59 1013.1
20260505091528 12 78 0.0 0.0 0.00 0.00 0.00 60 1013.1
20260505090025 12 76 0.0 0.0 0.00 0.00 0.00 62 1013.0
20260505084526 13 76 0.0 0.0 0.00 0.00 0.00 62 1012.8
20260505083022 13 76 0.0 0.0 0.00 0.00 0.00 63 1012.8
20260505081529 13 73 0.0 0.0 0.00 0.00 0.00 64 1012.4
20260505080020 13 73 0.0 0.0 0.00 0.00 0.00 64 1012.5
20260505074516 13 78 0.0 0.0 0.00 0.00 0.00 64 1012.4
20260505073014 13 122 0.0 0.0 0.00 0.00 0.00 63 1012.3
20260505071524 14 119 0.0 0.0 0.00 0.00 0.00 62 1012.2
20260505070011 14 119 0.0 0.0 0.00 0.00 0.00 61 1012.1
20260505064519 15 119 0.0 0.0 0.00 0.00 0.00 60 1012.1
20260505063012 15 119 0.0 0.0 0.00 0.00 0.00 58 1012.1
20260505061509 15 119 0.0 0.0 0.00 0.00 0.00 57 1012.3
20260505060002 15 121 0.0 0.0 0.00 0.00 0.00 55 1012.2
20260505054502 15 26 0.0 0.0 0.00 0.00 0.00 54 1012.1
20260505053001 16 132 0.0 0.0 0.00 0.00 0.00 54 1012.2
20260505051600 16 113 0.0 0.0 0.00 0.00 0.00 55 1012.2
20260505041556 15 298 0.0 0.0 0.00 0.00 0.00 55 1012.1
20260505040054 16 298 0.0 0.0 0.00 0.00 0.00 55 1012.1
20260505034553 16 298 0.0 0.0 0.00 0.00 0.00 56 1012.2
20260505033052 16 298 0.0 0.0 0.00 0.00 0.00 56 1012.3
20260505031550 16 298 0.0 0.0 0.00 0.00 0.00 55 1012.4
20260505030047 16 298 0.0 0.0 0.00 0.00 0.00 54 1012.4
20260505024540 16 298 0.0 0.0 0.00 0.00 0.00 57 1012.4
20260505023035 16 298 0.0 0.0 0.00 0.00 0.00 56 1012.4
20260505021532 16 298 0.0 0.0 0.00 0.00 0.00 56 1012.3
20260505020028 17 298 0.0 0.0 0.00 0.00 0.00 56 1012.3
20260505014524 17 298 0.0 0.0 0.00 0.00 0.00 53 1012.3
20260505013022 17 298 0.0 0.0 0.00 0.00 0.00 54 1012.0
20260505011521 18 298 0.0 0.0 0.00 0.00 0.00 53 1011.8
20260505010016 18 298 0.0 0.0 0.00 0.00 0.00 53 1011.7
20260505004512 19 298 0.0 0.0 0.00 0.00 0.00 51 1011.6
20260505003006 20 298 0.0 0.0 0.00 0.00 0.00 49 1011.6
20260505001502 20 298 0.0 0.0 0.00 0.00 0.00 46 1011.4
20260505000112 21 240 0.0 0.0 0.00 0.00 0.00 45 1011.3
20260504234559 21 175 0.0 0.0 0.00 0.00 0.00 45 1011.2
20260504233056 22 78 0.0 0.0 0.00 0.00 0.00 43 1011.0
20260504231555 22 67 0.0 0.0 0.00 0.00 0.00 44 1011.0
20260504230056 22 9 0.0 0.0 0.00 0.00 0.00 41 1011.0
20260504224552 22 117 0.0 0.0 0.00 0.00 0.00 40 1011.0
20260504223047 23 81 0.0 1.6 0.00 0.00 0.00 42 1011.1
20260504221544 23 186 0.0 1.6 0.00 0.00 0.00 41 1011.1
20260504220046 23 36 0.0 0.0 0.00 0.00 0.00 40 1011.1
20260504214544 23 346 0.0 0.0 0.00 0.00 0.00 39 1011.2
20260504213030 23 355 0.0 0.0 0.00 0.00 0.00 39 1011.2
20260504211526 24 308 0.0 0.0 0.00 0.00 0.00 39 1011.1
20260504210024 24 40 0.0 0.0 0.00 0.00 0.00 42 1011.2
20260504204517 24 329 0.0 0.0 0.00 0.00 0.00 40 1011.2
20260504203014 23 311 0.0 3.2 0.00 0.00 0.00 40 1011.4
20260504201508 23 74 0.0 0.0 0.00 0.00 0.00 40 1011.5
20260504200004 23 316 0.0 0.0 0.00 0.00 0.00 41 1011.7
20260504194559 23 327 0.0 1.6 0.00 0.00 0.00 42 1012.0
20260504193055 23 323 0.0 0.0 0.00 0.00 0.00 40 1012.1
20260504191556 23 13 0.0 0.0 0.00 0.00 0.00 43 1012.4
20260504190054 23 305 0.0 0.0 0.00 0.00 0.00 42 1012.7
20260504184553 23 320 0.0 0.0 0.00 0.00 0.00 41 1012.8
20260504183044 23 297 0.0 1.6 0.00 0.00 0.00 39 1013.1
20260504181537 23 287 0.0 3.2 0.00 0.00 0.00 38 1013.2
20260504180029 24 213 0.0 0.0 0.00 0.00 0.00 42 1013.2
20260504174524 24 166 0.0 1.6 0.00 0.00 0.00 41 1013.3
20260504173018 23 325 0.0 0.0 0.00 0.00 0.00 41 1013.4
20260504171514 22 15 0.0 0.0 0.00 0.00 0.00 42 1013.7